Location: Marse
(42.1502°N, 110.9866°W)
Time: 06:31:59
(UTC+00:00)

QB50P2 - Pass Details

Date: 06 July 2022
Orbit: 590 x 605 km, 97.9° (Epoch: 15 August)

Event Time Altitude Azimuth Distance (km) Brightness Sun altitude
Rises 07:26:59 0° 37° (NE) 2,864 ? -25.2°
Reaches altitude 10° 07:31:06 10° 77° (ENE) 1,955 ? -25.2°
Maximum altitude 07:32:01 11° 89° (E) 1,914 ? -25.2°
Enters shadow 07:32:01 11° 89° (E) 1,914 ? -25.2°
